Location: *
(51.1248°S, 108.4023°W)
Time: 05:21:43
(UTC+00:00)

IRS-1C Rocket - Pass Details

Date: 15 June 2021
Orbit: 801 x 805 km, 98.9° (Epoch: 31 July)

Event Time Altitude Azimuth Distance (km) Brightness Sun altitude
Rises 14:10:29 0° 6° (N) 3,319 7.8 -9.7°
Reaches altitude 10° 14:12:50 10° 2° (N) 2,396 7.0 -9.4°
Maximum altitude 14:18:04 60° 282° (WNW) 935 4.2 -8.6°
Drops below altitude 10° 14:23:23 10° 202° (SSW) 2,423 6.1 -7.9°
Sets 14:25:47 0° 198° (SSW) 3,360 6.9 -7.5°
